OITA_AIRPORT current weather conditions

sailwx.info

Wind from 260 at 5 knots

Air temperature 3.0° C
Visibility: greater than 5.4 NM
Dewpoint -1.0° C

Last reported at 2017-Jan-16 13:00 UTC.
Time now 2017-Jan-16 17:10 UTC

Location: N 33°29' E 131°44'.
View on Google Maps.

See reports from other nearby stations

  
Tides and Currents Weather Stations Pressure Air Temp Water Temp Dewpoint Dewpoint Depression Visibility Wind Speed Wind Dir Waves Ship Positions
date/time (UTC)wind fromknots sea level pressurealtimeterstation pressurevisibilityair tempwater tempwave heightnotes
2017-Jan-16 13:00 260 5 5.4 3.0
2017-Jan-16 12:00 260 5 5.4 3.0
2017-Jan-16 11:00 270 5 5.4 3.0
2017-Jan-16 10:00 280 5 5.4 4.0
2017-Jan-16 09:00 280 6 5.4 5.0 Light rain showers.
2017-Jan-16 08:00 320 7 5.4 6.0
2017-Jan-16 07:00 320 8 5.4 6.0 Showers in the vicinity.
2017-Jan-16 06:00 330 9 5.4 7.0 Showers in the vicinity.
2017-Jan-16 05:00 320 11 5.4 7.0 Light rain showers.
2017-Jan-16 04:00 330 13 5.4 6.0 Light rain showers.
2017-Jan-16 03:00 330 12 5.4 7.0 Showers in the vicinity.
2017-Jan-16 02:00 350 13 5.4 7.0
2017-Jan-16 01:00 290 11 5.4 7.0
2017-Jan-16 00:00 300 7 5.4 6.0
2017-Jan-15 23:00 270 6 5.4 4.0
2017-Jan-15 22:00 250 5 5.4 3.0 Showers in the vicinity.
2017-Jan-15 13:00 260 6 5.4 1.0
2017-Jan-15 12:00 240 4 5.4 2.0
2017-Jan-15 11:00 270 5 5.4 3.0
2017-Jan-15 10:00 280 7 5.4 4.0
2017-Jan-15 09:00 300 6 5.4 4.0
2017-Jan-15 08:00 310 11 5.4 4.0 Light snow showers.
2017-Jan-15 07:00 300 13 5.4 5.0
2017-Jan-15 06:00 320 13 5.4 5.0
2017-Jan-15 05:00 310 13 5.4 6.0
2017-Jan-15 04:00 300 13 gusting 22 5.4 5.0
2017-Jan-15 03:28 290 14 gusting 28 5.4 5.0
2017-Jan-15 03:00 280 17 5.4 4.0 Showers in the vicinity.
2017-Jan-15 02:00 320 15 5.4 4.0
2017-Jan-15 01:00 290 13 gusting 22 5.4 3.0
2017-Jan-15 00:00 280 13 5.4 1.0 Light snow showers.
2017-Jan-14 23:00 280 11 5.4-0.0 Light snow showers.
2017-Jan-14 22:16 270 8 3.8-0.0 Light snow showers.
2017-Jan-14 22:00 280 9 0.8-1.0 Light snow showers. Mist.